Location: The Saddle
(36.8333°N, 80.3417°W)
Time: 08:08:52
(UTC-04:00)

A-11 Canister half - Pass Details

Date: 03 June 2024
Orbit: 1515 x 1685 km, 47.2° (Epoch: 17 June)

Event Time Altitude Azimuth Distance (km) Brightness Sun altitude
Rises 21:58:41 0° 201° (SSW) 4,900 11.4 -14.1°
Reaches altitude 10° 22:02:12 10° 193° (SSW) 3,899 10.8 -14.6°
Maximum altitude 22:10:58 36° 131° (SE) 2,356 9.4 -15.9°
Drops below altitude 10° 22:19:29 10° 69° (ENE) 3,797 10.8 -17.0°
Sets 22:22:49 0° 62° (ENE) 4,760 11.4 -17.5°
